Location: Port Colborne
(42.8865°N, 79.2509°W)
Time: 01:56:54
(UTC-04:00)

OTV 5 (USA 277) - Pass Details

Date: 26 August 2019
Orbit: 295 x 339 km, 54.5° (Epoch: 08 September)

Event Time Altitude Azimuth Distance (km) Brightness Sun altitude
Rises 22:00:48 0° 271° (W) 1,997 ? -20.4°
Reaches altitude 10° 22:03:17 10° 297° (WNW) 1,169 ? -20.7°
Maximum altitude 22:04:54 15° 336° (NNW) 934 ? -21.0°
Enters shadow 22:06:23 11° 13° (NNE) 1,133 ? -21.2°
